Time,TemperatureF,DewpointF,PressureIn,WindDirection,WindDirectionDegrees,WindSpeedMPH,WindSpeedGustMPH,Humidity,HourlyPrecipIn,Conditions,Clouds,dailyrainin,SolarRadiationWatts/m^2,SoftwareType,DateUTC
2013-03-30 00:02:00,50.0,47.0,30.26,ENE,77,3.0,4.0,89,-99.99,,,0.00,0.230000,,2013-03-30 07:02:00,
2013-03-30 00:12:00,50.0,47.0,30.26,ENE,77,3.0,4.0,89,-99.99,,,0.00,0.230000,,2013-03-30 07:12:00,
2013-03-30 01:42:00,48.0,46.0,30.26,ENE,69,3.0,5.0,90,-99.99,,,0.00,0.120000,,2013-03-30 08:42:00,
2013-03-30 01:53:00,48.0,46.0,30.26,ENE,69,3.0,5.0,90,-99.99,,,0.00,0.120000,,2013-03-30 08:53:00,
2013-03-30 02:02:00,48.0,46.0,30.26,ENE,69,3.0,5.0,90,-99.99,,,0.00,0.120000,,2013-03-30 09:02:00,
2013-03-30 02:12:00,48.0,46.0,30.26,ENE,69,3.0,5.0,90,-99.99,,,0.00,0.120000,,2013-03-30 09:12:00,
2013-03-30 03:42:00,47.0,44.0,30.26,ENE,60,3.0,5.0,89,-99.99,,,0.00,0.000000,,2013-03-30 10:42:00,
2013-03-30 03:52:00,47.0,44.0,30.26,ENE,60,3.0,5.0,89,-99.99,,,0.00,0.000000,,2013-03-30 10:52:00,
2013-03-30 04:03:00,47.0,44.0,30.26,ENE,60,3.0,5.0,89,-99.99,,,0.00,0.000000,,2013-03-30 11:03:00,
2013-03-30 04:12:00,47.0,44.0,30.26,ENE,60,3.0,5.0,89,-99.99,,,0.00,0.000000,,2013-03-30 11:12:00,
2013-03-30 04:42:00,46.0,44.0,30.26,NE,56,3.0,7.0,90,-99.99,,,0.00,0.000000,,2013-03-30 11:42:00,
2013-03-30 04:53:00,46.0,44.0,30.26,NE,56,3.0,7.0,90,-99.99,,,0.00,0.000000,,2013-03-30 11:53:00,
2013-03-30 05:02:00,46.0,44.0,30.26,NE,56,3.0,7.0,90,-99.99,,,0.00,0.000000,,2013-03-30 12:02:00,
2013-03-30 05:12:00,46.0,44.0,30.26,NE,56,3.0,7.0,90,-99.99,,,0.00,0.000000,,2013-03-30 12:12:00,
2013-03-30 05:42:00,46.0,43.0,30.25,ENE,69,3.0,5.0,91,-99.99,,,0.00,0.000000,,2013-03-30 12:42:00,
2013-03-30 05:53:00,46.0,43.0,30.25,ENE,69,3.0,5.0,91,-99.99,,,0.00,0.000000,,2013-03-30 12:53:00,
2013-03-30 06:02:00,46.0,43.0,30.25,ENE,69,3.0,5.0,91,-99.99,,,0.00,0.000000,,2013-03-30 13:02:00,
2013-03-30 06:12:00,46.0,43.0,30.25,ENE,69,3.0,5.0,91,-99.99,,,0.00,0.000000,,2013-03-30 13:12:00,
2013-03-30 06:42:00,45.0,43.0,30.25,ENE,68,3.0,6.0,91,-99.99,,,0.00,0.000000,,2013-03-30 13:42:00,
2013-03-30 06:52:00,45.0,43.0,30.25,ENE,68,3.0,6.0,91,-99.99,,,0.00,0.000000,,2013-03-30 13:52:00,
2013-03-30 07:02:00,45.0,43.0,30.25,ENE,68,3.0,6.0,91,-99.99,,,0.00,0.000000,,2013-03-30 14:02:00,
2013-03-30 07:11:00,45.0,43.0,30.25,ENE,68,3.0,6.0,91,-99.99,,,0.00,0.000000,,2013-03-30 14:11:00,
2013-03-30 07:42:00,45.0,42.0,30.26,ENE,60,2.0,6.0,88,-99.99,,,0.00,11.390000,,2013-03-30 14:42:00,
2013-03-30 07:52:00,45.0,42.0,30.26,ENE,60,2.0,6.0,88,-99.99,,,0.00,11.390000,,2013-03-30 14:52:00,
2013-03-30 08:02:00,45.0,42.0,-100.00,ENE,60,2.0,6.0,88,-99.99,,,0.00,11.390000,,2013-03-30 15:02:00,
2013-03-30 08:12:00,45.0,42.0,30.26,ENE,60,2.0,6.0,88,-99.99,,,0.00,11.390000,,2013-03-30 15:12:00,
2013-03-30 08:43:00,46.0,42.0,30.26,East,89,2.0,7.0,86,-99.99,,,0.00,28.360001,,2013-03-30 15:43:00,
2013-03-30 08:53:00,46.0,42.0,30.26,East,89,2.0,7.0,86,-99.99,,,0.00,28.360001,,2013-03-30 15:53:00,
2013-03-30 09:03:00,46.0,42.0,30.26,East,89,2.0,7.0,86,-99.99,,,0.00,28.360001,,2013-03-30 16:03:00,
2013-03-30 09:12:00,46.0,42.0,30.26,East,89,2.0,7.0,86,-99.99,,,0.00,28.360001,,2013-03-30 16:12:00,
2013-03-30 09:42:00,52.0,43.0,30.25,ESE,110,3.0,10.0,71,-99.99,,,0.00,341.450012,,2013-03-30 16:42:00,
2013-03-30 09:52:00,52.0,43.0,30.25,ESE,110,3.0,10.0,71,-99.99,,,0.00,341.450012,,2013-03-30 16:52:00,
2013-03-30 10:02:00,52.0,43.0,30.25,ESE,110,3.0,10.0,71,-99.99,,,0.00,341.450012,,2013-03-30 17:02:00,
2013-03-30 10:12:00,52.0,43.0,30.25,ESE,110,3.0,10.0,71,-99.99,,,0.00,341.450012,,2013-03-30 17:12:00,
2013-03-30 10:42:00,56.0,44.0,30.24,ESE,122,3.0,8.0,63,-99.99,,,0.00,509.040009,,2013-03-30 17:42:00,
2013-03-30 10:52:00,56.0,44.0,30.24,ESE,122,3.0,8.0,63,-99.99,,,0.00,509.040009,,2013-03-30 17:52:00,
2013-03-30 11:02:00,56.0,44.0,30.24,ESE,122,3.0,8.0,63,-99.99,,,0.00,509.040009,,2013-03-30 18:02:00,
2013-03-30 11:12:00,56.0,44.0,30.24,ESE,122,3.0,8.0,63,-99.99,,,0.00,509.040009,,2013-03-30 18:12:00,
2013-03-30 11:42:00,62.0,45.0,30.23,ESE,109,2.0,7.0,54,-99.99,,,0.00,639.559998,,2013-03-30 18:42:00,
2013-03-30 11:53:00,62.0,45.0,30.23,ESE,109,2.0,7.0,54,-99.99,,,0.00,639.559998,,2013-03-30 18:53:00,
2013-03-30 12:02:00,62.0,45.0,30.23,ESE,109,2.0,7.0,54,-99.99,,,0.00,639.559998,,2013-03-30 19:02:00,
2013-03-30 13:42:00,69.0,45.0,30.19,East,86,3.0,11.0,41,-99.99,,,0.00,765.770020,,2013-03-30 20:42:00,
2013-03-30 13:53:00,69.0,45.0,30.19,East,86,3.0,11.0,41,-99.99,,,0.00,765.770020,,2013-03-30 20:53:00,
2013-03-30 14:02:00,69.0,45.0,30.19,East,86,3.0,11.0,41,-99.99,,,0.00,765.770020,,2013-03-30 21:02:00,
2013-03-30 14:12:00,69.0,45.0,30.19,East,86,3.0,11.0,41,-99.99,,,0.00,765.770020,,2013-03-30 21:12:00,
2013-03-30 14:43:00,71.0,46.0,30.16,East,83,3.0,9.0,39,-99.99,,,0.00,744.270020,,2013-03-30 21:43:00,
2013-03-30 14:53:00,71.0,46.0,30.16,East,83,3.0,9.0,39,-99.99,,,0.00,744.270020,,2013-03-30 21:53:00,
2013-03-30 15:02:00,71.0,46.0,30.16,East,83,3.0,9.0,39,-99.99,,,0.00,744.270020,,2013-03-30 22:02:00,
2013-03-30 15:12:00,71.0,46.0,30.16,East,83,3.0,9.0,39,-99.99,,,0.00,744.270020,,2013-03-30 22:12:00,
2013-03-30 15:43:00,73.0,44.0,30.14,East,90,4.0,14.0,35,-99.99,,,-99.99,668.500000,,2013-03-30 22:43:00,
2013-03-30 15:53:00,73.0,44.0,30.14,East,90,4.0,14.0,35,-99.99,,,-99.99,668.500000,,2013-03-30 22:53:00,
2013-03-30 16:02:00,73.0,44.0,30.14,East,90,4.0,14.0,35,-99.99,,,-99.99,668.500000,,2013-03-30 23:02:00,
2013-03-30 16:12:00,73.0,44.0,30.14,East,90,4.0,14.0,35,-99.99,,,-99.99,668.500000,,2013-03-30 23:12:00,
2013-03-30 16:42:00,74.0,45.0,30.12,ESE,112,2.0,7.0,35,-99.99,,,0.00,547.400024,,2013-03-30 23:42:00,
2013-03-30 16:53:00,74.0,45.0,30.12,ESE,112,2.0,7.0,35,-99.99,,,0.00,547.400024,,2013-03-30 23:53:00,
2013-03-30 17:02:00,74.0,45.0,30.12,ESE,112,2.0,7.0,35,-99.99,,,0.00,547.400024,,2013-03-31 00:02:00,
2013-03-30 17:11:00,74.0,45.0,30.12,ESE,112,2.0,7.0,35,-99.99,,,0.00,547.400024,,2013-03-31 00:11:00,
2013-03-30 17:42:00,74.0,45.0,30.09,East,94,3.0,14.0,35,-99.99,,,0.00,389.220001,,2013-03-31 00:42:00,
2013-03-30 17:52:00,74.0,45.0,30.09,East,94,3.0,14.0,35,-99.99,,,0.00,389.220001,,2013-03-31 00:52:00,
2013-03-30 18:02:00,74.0,45.0,30.09,East,94,3.0,14.0,35,-99.99,,,0.00,389.220001,,2013-03-31 01:02:00,
2013-03-30 18:12:00,74.0,45.0,30.09,East,94,3.0,14.0,35,-99.99,,,0.00,389.220001,,2013-03-31 01:12:00,
2013-03-30 18:42:00,69.0,48.0,30.09,East,97,2.0,6.0,47,-99.99,,,0.00,209.779999,,2013-03-31 01:42:00,
2013-03-30 18:53:00,69.0,48.0,30.09,East,97,2.0,6.0,47,-99.99,,,0.00,209.779999,,2013-03-31 01:53:00,
2013-03-30 19:02:00,69.0,48.0,30.09,East,97,2.0,6.0,47,-99.99,,,0.00,209.779999,,2013-03-31 02:02:00,
2013-03-30 19:12:00,69.0,48.0,30.09,East,97,2.0,6.0,47,-99.99,,,0.00,209.779999,,2013-03-31 02:12:00,
2013-03-30 19:42:00,65.0,48.0,30.08,ESE,102,1.0,6.0,53,-99.99,,,0.00,15.810000,,2013-03-31 02:42:00,
2013-03-30 19:52:00,65.0,48.0,30.08,ESE,102,1.0,6.0,53,-99.99,,,0.00,15.810000,,2013-03-31 02:52:00,
2013-03-30 20:02:00,65.0,48.0,30.08,ESE,102,1.0,6.0,53,-99.99,,,0.00,15.810000,,2013-03-31 03:02:00,
2013-03-30 20:12:00,65.0,48.0,30.08,ESE,102,1.0,6.0,53,-99.99,,,0.00,15.810000,,2013-03-31 03:12:00,
2013-03-30 20:43:00,61.0,49.0,30.08,ENE,70,3.0,5.0,65,-99.99,,,0.00,0.000000,,2013-03-31 03:43:00,
2013-03-30 20:54:00,61.0,49.0,30.08,ENE,70,3.0,5.0,65,-99.99,,,0.00,0.000000,,2013-03-31 03:54:00,
2013-03-30 21:02:00,61.0,-99.9,30.08,ENE,70,3.0,5.0,65,-99.99,,,0.00,0.000000,,2013-03-31 04:02:00,
2013-03-30 21:12:00,61.0,49.0,30.08,ENE,70,3.0,5.0,65,-99.99,,,0.00,0.000000,,2013-03-31 04:12:00,
2013-03-30 21:42:00,57.0,48.0,30.09,East,79,3.0,5.0,69,-99.99,,,0.00,0.000000,,2013-03-31 04:42:00,
2013-03-30 21:52:00,57.0,48.0,30.09,East,79,3.0,5.0,69,-99.99,,,0.00,0.000000,,2013-03-31 04:52:00,
2013-03-30 22:02:00,57.0,48.0,30.09,East,79,3.0,5.0,69,-99.99,,,0.00,0.000000,,2013-03-31 05:02:00,
2013-03-30 22:12:00,57.0,48.0,30.09,East,79,3.0,5.0,69,-99.99,,,0.00,0.000000,,2013-03-31 05:12:00,
2013-03-30 22:42:00,57.0,47.0,30.10,ENE,72,3.0,6.0,70,-99.99,,,0.00,0.000000,,2013-03-31 05:42:00,
2013-03-30 22:53:00,57.0,47.0,30.10,ENE,72,3.0,6.0,70,-99.99,,,0.00,0.000000,,2013-03-31 05:53:00,
2013-03-30 23:01:00,57.0,47.0,30.10,ENE,72,3.0,6.0,70,-99.99,,,0.00,0.000000,,2013-03-31 06:01:00,
2013-03-30 23:11:00,57.0,47.0,30.10,ENE,72,3.0,6.0,70,-99.99,,,0.00,0.000000,,2013-03-31 06:11:00,
2013-03-30 23:42:00,54.0,47.0,30.09,ENE,74,2.0,4.0,75,-99.99,,,0.00,0.000000,,2013-03-31 06:42:00,
2013-03-30 23:52:00,54.0,47.0,30.09,ENE,74,2.0,4.0,75,-99.99,,,0.00,0.000000,,2013-03-31 06:52:00,